Weather History for Ames, IA

Change the Weather History Date:

Tuesday, June 17, 2014

  Actual Average Record
Temperature  
Mean Temperature 74 °F 71 °F  
Max Temperature 85 °F 82 °F 90 °F (2007)
Min Temperature 62 °F 59 °F 44 °F (2000)
Degree Days  
Heating Degree Days 0 0  
Month to date heating degree days 4 21  
Since 1 June heating degree days 4 21  
Since 1 July heating degree days 7627 6828  
Cooling Degree Days 9 6  
Month to date cooling degree days 60 79  
Year to date cooling degree days 137 128  
Since 1 June cooling degree days 60 79  
Growing Degree Days 23 (Base 50)    
Moisture  
Dew Point 65 °F    
Average Humidity 81    
Maximum Humidity 100    
Minimum Humidity 62    
Precipitation  
Precipitation 1.30 in 0.14 in 2.54 in (1990)
Month to date precipitation 4.42 2.77  
Sea Level Pressure  
Sea Level Pressure 29.82 in    
Wind  
Wind Speed 11 mph (SE)    
Max Wind Speed 41 mph    
Max Gust Speed 56 mph    
Visibility 7 miles    
Events Rain , Thunderstorm    
T = Trace of Precipitation, MM = Missing Value Source: NWS Daily Summary

Daily Weather History Graph

Daily Weather History Graph

Search for Another Location

Airport:

Trip Planner

Search our weather history database for the weather conditions in past years. The results will help you decide how hot, cold, wet, or windy it might be!

Date:

Astronomy

Jun. 17, 2014 Rise Set
Actual Time 5:38 AM CDT 8:52 PM CDT
Civil Twilight 5:03 AM CDT 9:26 PM CDT
Nautical Twilight 4:19 AM CDT 10:11 PM CDT
Astronomical Twilight 3:25 AM CDT 11:05 PM CDT
Moon No Moon Rise 10:58 AM CDT (6/17)
Length of Visible Light 16h 22m
Length of Day
15h 14m
Waning Gibbous, 73% of the Moon is Illuminated
Jun 17
Waning Gibbous
Jun 19
Last Quarter
Jun 27
New
Jul 5
First Quarter
Jul 12
Full

Hourly Weather History & Observations

Time (CDT) Temp. Heat Index Dew Point Humidity Pressure Visibility Wind Dir Wind Speed Gust Speed Precip Events Conditions
12:00 AM 66.0 °F - 62.1 °F 87% 29.81 in 10.0 mi North 17.3 mph 26.5 mph N/A   Overcast
12:26 AM 64.9 °F - 62.1 °F 90% 29.79 in 2.5 mi ENE 10.4 mph - 0.20 in Rain , Thunderstorm Heavy Rain
12:33 AM 64.9 °F - 62.1 °F 90% 29.78 in 2.5 mi East 13.8 mph - 0.31 in Rain , Thunderstorm Heavy Thunderstorms and Rain
12:40 AM 64.9 °F - 63.0 °F 93% 29.77 in 5.0 mi East 13.8 mph 23.0 mph 0.32 in Rain , Thunderstorm Thunderstorms and Rain
12:48 AM 64.4 °F - 64.4 °F 100% 29.79 in 10.0 mi SSE 10.4 mph 23.0 mph 0.33 in Rain , Thunderstorm Light Rain
12:53 AM 64.9 °F - 63.0 °F 93% 29.78 in 10.0 mi East 12.7 mph - 0.33 in Rain , Thunderstorm Light Thunderstorms and Rain
1:06 AM 64.0 °F - 62.1 °F 93% 29.95 in 1.8 mi North 34.5 mph 56.4 mph 0.28 in Rain , Thunderstorm Heavy Thunderstorms and Rain
1:09 AM 63.0 °F - 62.1 °F 97% 29.95 in 1.0 mi NNW 24.2 mph 56.4 mph 0.53 in Rain , Thunderstorm Heavy Rain
1:14 AM 62.1 °F - 62.1 °F 100% 29.94 in 0.8 mi NNW 12.7 mph 44.9 mph 0.81 in Rain , Thunderstorm Heavy Thunderstorms and Rain
1:19 AM 62.1 °F - 62.1 °F 100% 29.91 in 1.0 mi NE 9.2 mph - 0.92 in Rain , Thunderstorm Heavy Thunderstorms and Rain
1:26 AM 62.1 °F - 62.1 °F 100% 29.89 in 2.0 mi ENE 13.8 mph 19.6 mph 1.01 in Rain , Thunderstorm Heavy Thunderstorms and Rain
1:34 AM 62.1 °F - 62.1 °F 100% 29.89 in 1.8 mi ENE 9.2 mph 19.6 mph 1.08 in Rain , Thunderstorm Heavy Thunderstorms and Rain
1:38 AM 62.1 °F - 62.1 °F 100% 29.89 in 3.0 mi NE 10.4 mph 19.6 mph 1.08 in Rain , Thunderstorm Thunderstorms and Rain
1:53 AM 62.1 °F - 62.1 °F 100% 29.87 in 5.0 mi ENE 9.2 mph - 1.11 in Rain , Thunderstorm Thunderstorms and Rain
2:00 AM 62.1 °F - 62.1 °F 100% 29.89 in 8.0 mi East 9.2 mph - 0.00 in Rain Light Rain
2:43 AM 63.0 °F - 63.0 °F 100% 29.88 in 10.0 mi NNE 8.1 mph - 0.01 in Rain , Thunderstorm Light Thunderstorms and Rain
2:53 AM 62.1 °F - 62.1 °F 100% 29.85 in 4.0 mi East 4.6 mph - 0.04 in Rain , Thunderstorm Rain
3:23 AM 62.1 °F - 62.1 °F 100% 29.90 in 4.0 mi NE 4.6 mph - 0.07 in Rain Rain
3:38 AM 62.1 °F - 62.1 °F 100% 29.91 in 5.0 mi SSE 5.8 mph - 0.10 in Rain , Thunderstorm Thunderstorms and Rain
3:53 AM 63.0 °F - 61.0 °F 93% 29.87 in 9.0 mi SE 8.1 mph - 0.11 in Rain Light Rain
4:53 AM 63.0 °F - 62.1 °F 97% 29.84 in 9.0 mi SE 8.1 mph - 0.02 in Rain , Thunderstorm Light Rain
5:14 AM 63.0 °F - 62.1 °F 97% 29.84 in 9.0 mi SE 12.7 mph - 0.01 in Rain , Thunderstorm Light Thunderstorms and Rain
5:46 AM 63.0 °F - 61.0 °F 93% 29.78 in 10.0 mi SSE 19.6 mph 28.8 mph 0.02 in   Scattered Clouds
5:53 AM 63.0 °F - 61.0 °F 93% 29.75 in 10.0 mi SSE 16.1 mph 26.5 mph 0.02 in   Partly Cloudy
6:53 AM 63.0 °F - 60.1 °F 90% 29.79 in 10.0 mi South 13.8 mph - N/A   Clear
7:53 AM 64.9 °F - 61.0 °F 87% 29.77 in 10.0 mi South 16.1 mph 26.5 mph N/A   Clear
8:53 AM 72.0 °F - 62.1 °F 71% 29.78 in 10.0 mi South 12.7 mph 19.6 mph N/A   Clear
9:53 AM 73.9 °F - 62.1 °F 66% 29.80 in 10.0 mi SSE 12.7 mph - N/A   Clear
10:53 AM 79.0 °F - 64.0 °F 60% 29.79 in 10.0 mi SSE 11.5 mph - N/A   Clear
11:53 AM 81.0 °F 83.3 °F 66.9 °F 62% 29.77 in 10.0 mi South 18.4 mph 25.3 mph N/A   Clear
12:53 PM 82.9 °F 87.0 °F 70.0 °F 65% 29.76 in 10.0 mi South 15.0 mph 25.3 mph N/A   Clear
1:53 PM 84.0 °F 89.0 °F 71.1 °F 65% 29.75 in 10.0 mi South 19.6 mph 27.6 mph N/A   Partly Cloudy
3:53 PM 82.9 °F 88.8 °F 73.0 °F 72% 29.75 in 10.0 mi South 9.2 mph - N/A   Overcast
4:53 PM 84.0 °F 91.2 °F 73.9 °F 72% 29.75 in 9.0 mi SSE 9.2 mph - N/A   Mostly Cloudy
5:53 PM 84.0 °F 90.2 °F 73.0 °F 69% 29.75 in 9.0 mi South 9.2 mph - N/A   Overcast
6:53 PM 82.9 °F 89.4 °F 73.9 °F 74% 29.75 in 8.0 mi SSE 8.1 mph - N/A   Mostly Cloudy
7:53 PM 82.0 °F 88.6 °F 75.0 °F 79% 29.76 in 8.0 mi SE 6.9 mph - N/A   Overcast
8:53 PM 80.1 °F 85.1 °F 75.0 °F 85% 29.76 in 9.0 mi SE 5.8 mph - N/A   Overcast
9:53 PM 79.0 °F - 73.9 °F 84% 29.78 in 9.0 mi SSE 6.9 mph - N/A   Mostly Cloudy
10:53 PM 78.1 °F - 73.0 °F 84% 29.79 in 9.0 mi SSE 8.1 mph - N/A   Partly Cloudy
11:53 PM 78.1 °F - 72.0 °F 81% 29.77 in 9.0 mi SSE 10.4 mph - N/A   Partly Cloudy